[[{"header":{"parameterUnit":"m.s-1","parameterCategory":1,"la1":30.2991,"la2":30.254,"lo1":-89.0895,"lo2":-89.0444,"dy":0.0017,"dx":0.0017,"nx":28,"ny":28,"refTime":"2023-05-01T21:00:00:Z","depth":0,"parameterNumber":2,"parameterNumberName":"U-component_of_WINDS"},"data":[0,0,0,0,0,0,0,0,0,0,0,0,0,0,0,0,0,0,0,0,0,0,0,0,0,0,0,0,0,0,0,0,0,0,0,0,0,0,0,0,0,0,0,0,0,0,0,0,0,0,0,0,0,0,0,0,0,0,-1.8105,-1.8105,0,-1.8127,-1.8128,-1.8128,-1.8054,-1.8052,-1.805,-1.8048,-1.8072,-1.8074,-1.8077,0,0,0,0,0,0,0,0,0,0,0,0,0,-1.7997,-1.7999,-1.8104,-1.8105,-1.8105,-1.8127,-1.8128,-1.8128,-1.8055,-1.8052,-1.8049,-1.8047,-1.8071,-1.8074,-1.8077,0,0,0,0,0,0,0,0,0,0,0,0,0,-1.8034,-1.8,-1.8104,-1.8071,-1.8068,-1.8127,-1.8128,-1.8128,-1.8055,-1.8052,-1.8049,-1.8046,-1.807,-1.8074,-1.8078,-1.8169,0,0,-1.809,-1.8092,0,0,0,0,0,0,0,0,-1.8032,-1.8038,-1.8076,-1.8074,-1.8071,-1.8085,-1.8098,-1.8142,-1.8056,-1.806,-1.8048,-1.8044,-1.8079,-1.8082,-1.8093,-1.8171,-1.8172,-1.809,-1.8093,-1.8094,-1.8096,0,0,0,0,0,0,0,-1.803,-1.8037,-1.8113,-1.8076,-1.8073,-1.8055,-1.8057,-1.8106,-1.8088,-1.806,-1.8054,-1.8058,-1.8077,-1.809,-1.8093,-1.8172,-1.809,-1.8094,-1.8096,-1.8098,-1.8324,-1.8327,0,0,0,0,0,0,-1.8031,-1.8035,-1.8113,-1.8114,-1.8043,-1.806,-1.8061,-1.8084,-1.8087,-1.8085,-1.8061,-1.8055,-1.8084,-1.8089,-1.8094,-1.8201,-1.8094,-1.8098,-1.8101,-1.8321,-1.8325,-1.8329,0,0,0,0,0,0,-1.8029,-1.8039,-1.8112,-1.8073,-1.8081,-1.8065,-1.809,-1.8086,-1.8099,-1.8088,-1.8084,-1.8078,-1.8082,-1.8088,-1.8151,-1.82,-1.81,-1.8104,-1.8316,-1.8322,-1.8327,-1.8416,0,0,0,0,0,0,-1.8027,-1.8039,-1.8074,-1.8075,-1.8083,-1.8169,-1.8094,-1.8089,-1.8106,-1.8098,-1.8103,-1.8101,-1.808,-1.8145,-1.8155,-1.8204,-1.8107,-1.8312,-1.8319,-1.8325,-1.8408,-1.8423,-1.8436,0,0,0,0,0,-1.8023,-1.8098,-1.8076,-1.8086,-1.8127,-1.8172,-1.8177,-1.8151,-1.811,-1.8145,-1.8138,-1.81,-1.8194,-1.8152,-1.8162,-1.8214,-1.8308,-1.8317,-1.8325,-1.8402,-1.842,-1.8436,0,0,0,0,0,0,-1.8104,-1.8098,-1.8073,-1.8151,-1.8162,-1.8159,-1.8203,-1.8172,-1.8196,-1.8187,-1.8155,-1.8156,-1.8225,-1.8225,-1.818,-1.8302,-1.8244,-1.8254,-1.8299,-1.8317,-1.8331,-1.8329,-1.811,0,0,0,0,0,-1.8131,-1.8168,-1.8161,-1.823,-1.8237,-1.8219,-1.8238,-1.8217,-1.8228,-1.8232,-1.823,-1.8242,-1.8273,-1.8295,-1.8324,-1.8408,-1.8408,-1.8448,-1.8462,-1.8474,-1.8483,-1.8527,-1.8544,-1.8355,-1.8355,-1.8355,0,0,-1.8187,-1.8188,-1.8214,-1.8246,-1.8253,-1.8292,-1.8224,-1.8268,-1.8296,-1.8239,-1.8298,-1.8297,-1.8307,-1.8381,-1.8413,-1.8384,-1.8536,-1.8484,-1.8494,-1.8497,-1.8537,-1.8555,-1.8571,-1.8361,-1.836,-1.8359,0,0,-1.8308,-1.8314,-1.8371,-1.8379,-1.839,-1.8377,-1.8391,-1.8393,-1.8389,-1.8448,-1.8405,-1.8438,-1.8494,-1.8503,-1.8515,-1.864,-1.8606,-1.865,-1.8724,-1.8766,-1.8781,-1.8794,-1.8838,-1.8854,-1.8659,-1.866,-1.866,0,-1.8377,-1.8434,-1.8405,-1.8452,-1.8467,-1.8416,-1.8474,-1.8483,-1.8503,-1.8514,-1.8481,-1.8549,-1.8553,-1.8628,-1.8658,-1.867,-1.8684,-1.8649,-1.8781,-1.8794,-1.8806,-1.8847,-1.8863,-1.8665,-1.8664,-1.8664,-1.8663,0,-1.8516,-1.8556,-1.8602,-1.8621,-1.8642,-1.8694,-1.8673,-1.8697,-1.8674,-1.8665,-1.8725,-1.8727,-1.8755,-1.8772,-1.875,-1.8843,-1.8824,-1.8787,-1.8727,-1.883,-1.8867,-1.8883,-1.8673,-1.8671,-1.8669,-1.8668,0,0,-1.869,-1.8692,-1.8709,-1.8717,-1.8725,-1.8755,-1.8805,-1.8832,-1.8853,-1.8868,-1.8908,-1.8956,-1.8921,-1.8935,-1.8914,-1.8952,-1.9048,-1.8909,-1.8909,-1.8934,-1.915,-1.9177,-1.9196,-1.9026,-1.9029,-1.9031,-1.9148,0,-1.8808,-1.8893,-1.8868,-1.8953,-1.8989,-1.8942,-1.8985,-1.8994,-1.8987,-1.9016,-1.9008,-1.9042,-1.8994,-1.9002,-1.9037,-1.9029,-1.9091,-1.9021,-1.9063,-1.9065,-1.9061,-1.9216,-1.9245,-1.9355,-1.9163,-1.9165,-1.9167,0,-1.8958,-1.8979,-1.9068,-1.9068,-1.9082,-1.9122,-1.9144,-1.9173,-1.9182,-1.9174,-1.9189,-1.916,-1.9208,-1.9149,-1.9214,-1.9167,-1.9182,-1.9182,-1.9185,-1.9188,-1.9122,-1.9222,-1.939,-1.9406,-1.9191,-1.9189,-1.9187,0,-1.9075,-1.9125,-1.9184,-1.9192,-1.9195,-1.9223,-1.9225,-1.9231,-1.9249,-1.9268,-1.9279,-1.9304,-1.9318,-1.9338,-1.9316,-1.9275,-1.9384,-1.9324,-1.9378,-1.9379,-1.9403,-1.9402,-1.9576,-1.9415,-1.9415,-1.9414,-1.9414,0,-1.921,-1.9266,-1.9236,-1.9272,-1.9333,-1.9304,-1.9365,-1.9361,-1.9367,-1.9401,-1.9362,-1.9395,-1.9365,-1.9396,-1.9379,-1.9435,-1.9442,-1.9436,-1.9431,-1.9439,-1.944,-1.9449,-1.944,-1.9419,-1.9418,-1.9417,-1.9416,0,-1.935,-1.9332,-1.9393,-1.939,-1.9391,-1.9436,-1.9433,-1.9466,-1.9456,-1.95,-1.9509,-1.9492,-1.9526,-1.9507,-1.9541,-1.953,-1.9603,-1.9587,-1.96,-1.9595,-1.9651,-1.9646,-1.9836,-1.9859,-1.9684,-1.9686,-1.9687,0,-1.9437,-1.9478,-1.948,-1.95,-1.9505,-1.9538,-1.9555,-1.9528,-1.9548,-1.9561,-1.9592,-1.9622,-1.9645,-1.9701,-1.9692,-1.9718,-1.9702,-1.9767,-1.9706,-1.9713,-1.9702,-1.97,-1.9703,-1.978,-1.9782,-1.9783,-1.9785,0,-1.9592,-1.9581,-1.9608,-1.9632,-1.9653,-1.9671,-1.9685,-1.9703,-1.9676,-1.97,-1.9734,-1.9751,-1.9786,-1.9816,-1.9838,-1.984,-1.9808,-1.9804,-1.9818,-1.9827,-1.9832,-1.9829,-1.9632,-1.98,-1.9798,-1.9797,-1.9796,-1.9796,-1.9708,-1.9742,-1.9748,-1.9779,-1.9786,-1.98,-1.9831,-1.9824,-1.9852,-1.9878,-1.986,-1.9899,-1.9907,-1.9933,-1.9939,-1.9969,-1.9943,-1.9963,-1.9968,-1.9973,-1.9981,-1.9827,-1.9973,-1.9973,-1.9972,-1.9972,-1.9971,0,-1.9861,-1.9862,-1.9891,-1.9911,-1.9935,-1.9902,-1.9916,-1.9938,-1.9973,-1.9983,-2.0006,-2.0044,-2.0073,-2.0066,-2.0092,-2.0117,-2.0103,-2.0125,-2.0122,-2.0123,-2.0003,-1.9988,-2.0136,-2.0136,-2.0136,-2.0136,-2.0136,-2.0136,-1.9943,-1.9999,-1.9989,-2.0048,-2.0049,-2.0087,-2.0097,-2.011,-2.0117,-2.0161,-2.0185,-2.018,-2.0183,-2.0208,-2.0233,-2.023,-2.0241,-2.0269,-2.026,-2.0148,-2.0132,-2.0116,-2.0102,-2.0271,-2.0272,-2.0378,-2.0379,-2.0379]},{"header":{"parameterUnit":"m.s-1","parameterCategory":1,"la1":30.2991,"la2":30.254,"lo1":-89.0895,"lo2":-89.0444,"dy":0.0017,"dx":0.0017,"nx":28,"ny":28,"refTime":"2023-05-01T21:00:00:Z","depth":0,"parameterNumber":3,"parameterNumberName":"V-component_of_WINDS"},"data":[0,0,0,0,0,0,0,0,0,0,0,0,0,0,0,0,0,0,0,0,0,0,0,0,0,0,0,0,0,0,0,0,0,0,0,0,0,0,0,0,0,0,0,0,0,0,0,0,0,0,0,0,0,0,0,0,0,0,-0.9845,-0.9845,0,-0.9859,-0.9859,-0.9859,-0.9857,-0.9856,-0.9856,-0.9856,-0.9869,-0.987,-0.987,0,0,0,0,0,0,0,0,0,0,0,0,0,-0.9814,-0.9815,-0.9845,-0.9845,-0.9845,-0.9859,-0.9859,-0.9859,-0.9857,-0.9856,-0.9856,-0.9856,-0.9869,-0.9869,-0.987,0,0,0,0,0,0,0,0,0,0,0,0,0,-0.9828,-0.9815,-0.9845,-0.9846,-0.9846,-0.9859,-0.9859,-0.986,-0.9857,-0.9856,-0.9856,-0.9856,-0.9869,-0.9869,-0.987,-0.9883,0,0,-0.9873,-0.9873,0,0,0,0,0,0,0,0,-0.9827,-0.9829,-0.9845,-0.9846,-0.9846,-0.9856,-0.9853,-0.9867,-0.9857,-0.9853,-0.9856,-0.9855,-0.9865,-0.9866,-0.9869,-0.9884,-0.9884,-0.9873,-0.9874,-0.9874,-0.9874,0,0,0,0,0,0,0,-0.9826,-0.9829,-0.9851,-0.9846,-0.9846,-0.9845,-0.9846,-0.9856,-0.9861,-0.9853,-0.9853,-0.9854,-0.9865,-0.9869,-0.987,-0.9885,-0.9873,-0.9874,-0.9874,-0.9875,-0.991,-0.991,0,0,0,0,0,0,-0.9825,-0.9828,-0.985,-0.9851,-0.9836,-0.9846,-0.9847,-0.9853,-0.986,-0.9861,-0.9855,-0.9854,-0.9867,-0.9869,-0.987,-0.9885,-0.9874,-0.9875,-0.9875,-0.9909,-0.991,-0.991,0,0,0,0,0,0,-0.9825,-0.9827,-0.985,-0.9839,-0.9842,-0.9847,-0.9853,-0.9853,-0.9857,-0.9862,-0.9863,-0.9858,-0.9867,-0.9869,-0.988,-0.9886,-0.9875,-0.9876,-0.9909,-0.991,-0.991,-0.9916,0,0,0,0,0,0,-0.9824,-0.9827,-0.9833,-0.984,-0.9843,-0.986,-0.9853,-0.9854,-0.9859,-0.9858,-0.9865,-0.9866,-0.9867,-0.9879,-0.9881,-0.9887,-0.9877,-0.9908,-0.9909,-0.991,-0.9916,-0.9917,-0.9918,0,0,0,0,0,-0.9823,-0.9834,-0.9833,-0.9836,-0.985,-0.986,-0.9862,-0.9863,-0.9859,-0.9864,-0.9867,-0.9865,-0.9885,-0.988,-0.9882,-0.9889,-0.9908,-0.9909,-0.991,-0.9915,-0.9917,-0.9918,0,0,0,0,0,0,-0.9827,-0.9835,-0.9834,-0.9847,-0.9853,-0.986,-0.9866,-0.9865,-0.9872,-0.9871,-0.9872,-0.9874,-0.9885,-0.9888,-0.9882,-0.9901,-0.9896,-0.9897,-0.9899,-0.9901,-0.9902,-0.9901,-0.9877,0,0,0,0,0,-0.983,-0.9838,-0.9844,-0.9855,-0.9858,-0.9862,-0.9866,-0.9867,-0.9873,-0.9875,-0.9879,-0.9884,-0.9892,-0.9896,-0.9903,-0.9916,-0.9917,-0.9922,-0.9923,-0.9924,-0.9925,-0.9932,-0.9934,-0.9913,-0.9913,-0.9913,0,0,-0.9835,-0.984,-0.9845,-0.9856,-0.9861,-0.9869,-0.9864,-0.9873,-0.9878,-0.9876,-0.9887,-0.989,-0.9896,-0.9908,-0.9913,-0.9911,-0.9931,-0.9925,-0.9926,-0.9927,-0.9933,-0.9935,-0.9937,-0.9914,-0.9914,-0.9914,0,0,-0.9849,-0.9854,-0.9863,-0.9868,-0.9875,-0.9877,-0.988,-0.9886,-0.9888,-0.9899,-0.9897,-0.9904,-0.9917,-0.9921,-0.9925,-0.9939,-0.9938,-0.9942,-0.9949,-0.9955,-0.9957,-0.9958,-0.9963,-0.9965,-0.9943,-0.9943,-0.9943,0,-0.9854,-0.9867,-0.9869,-0.9877,-0.9882,-0.9881,-0.989,-0.9895,-0.9903,-0.9906,-0.9903,-0.9919,-0.9923,-0.9935,-0.9939,-0.9942,-0.9944,-0.9941,-0.9956,-0.9958,-0.9959,-0.9964,-0.9966,-0.9943,-0.9943,-0.9943,-0.9943,0,-0.9873,-0.9882,-0.9889,-0.9897,-0.9903,-0.9912,-0.9915,-0.992,-0.992,-0.9922,-0.9933,-0.9937,-0.9945,-0.9948,-0.9948,-0.9961,-0.9959,-0.9956,-0.9951,-0.9961,-0.9966,-0.9968,-0.9944,-0.9944,-0.9943,-0.9943,0,0,-0.989,-0.9899,-0.9902,-0.9906,-0.9913,-0.9919,-0.9928,-0.9936,-0.994,-0.9946,-0.9953,-0.9964,-0.9961,-0.9966,-0.9966,-0.9972,-0.9982,-0.9968,-0.9968,-0.997,-0.9996,-0.9998,-1.0,-0.9981,-0.9982,-0.9982,-0.9995,0,-0.9904,-0.992,-0.9922,-0.9936,-0.9944,-0.9942,-0.995,-0.9955,-0.9957,-0.9963,-0.9966,-0.9973,-0.9969,-0.9972,-0.9977,-0.998,-0.9987,-0.9979,-0.9987,-0.9988,-0.9986,-1.0002,-1.0004,-1.0016,-0.9997,-0.9997,-0.9997,0,-0.9923,-0.993,-0.9945,-0.9951,-0.9954,-0.9961,-0.9968,-0.9974,-0.9979,-0.9981,-0.9985,-0.9985,-0.9993,-0.9988,-0.9999,-0.9993,-0.9997,-0.9998,-0.9999,-1.0,-0.9993,-1.0003,-1.0021,-1.0022,-1.0,-1.0,-1.0,0,-0.9933,-0.9946,-0.9957,-0.996,-0.9967,-0.9972,-0.9975,-0.998,-0.9984,-0.999,-0.9993,-1.0,-1.0004,-1.0009,-1.001,-1.0006,-1.0021,-1.0015,-1.0022,-1.0022,-1.0025,-1.0025,-1.0043,-1.0028,-1.0028,-1.0028,-1.0028,0,-0.9949,-0.9958,-0.9961,-0.9968,-0.9978,-0.9979,-0.9989,-0.9991,-0.9996,-1.0002,-1.0002,-1.0008,-1.0009,-1.0015,-1.0016,-1.0025,-1.0027,-1.0028,-1.0028,-1.0028,-1.0027,-1.003,-1.0029,-1.0028,-1.0028,-1.0028,-1.0028,0,-0.9962,-0.9965,-0.9976,-0.9982,-0.9984,-0.9991,-0.9995,-1.0001,-1.0003,-1.0012,-1.0013,-1.0017,-1.0024,-1.0025,-1.0034,-1.0035,-1.0045,-1.0045,-1.0043,-1.0043,-1.0049,-1.0049,-1.007,-1.0072,-1.0055,-1.0056,-1.0056,0,-0.9972,-0.9979,-0.9985,-0.999,-0.9993,-1.0,-1.0005,-1.0006,-1.0011,-1.0017,-1.0022,-1.0029,-1.0035,-1.0047,-1.0049,-1.0056,-1.0055,-1.0062,-1.0056,-1.0056,-1.0055,-1.0054,-1.0055,-1.0063,-1.0063,-1.0063,-1.0064,0,-0.9988,-0.9989,-0.9996,-1.0003,-1.0009,-1.0014,-1.0019,-1.0023,-1.0025,-1.003,-1.0038,-1.0042,-1.0051,-1.0058,-1.0064,-1.0067,-1.0065,-1.0065,-1.0067,-1.0067,-1.0066,-1.0066,-1.0046,-1.0065,-1.0065,-1.0065,-1.0065,-1.0065,-1.0,-1.0006,-1.0011,-1.0019,-1.0023,-1.0028,-1.0033,-1.0036,-1.0043,-1.005,-1.005,-1.0058,-1.0063,-1.0071,-1.0074,-1.008,-1.0078,-1.0081,-1.0081,-1.0082,-1.0082,-1.0065,-1.0082,-1.0081,-1.0081,-1.0081,-1.0081,0,-1.0016,-1.002,-1.0026,-1.0034,-1.0039,-1.0038,-1.0044,-1.0048,-1.0055,-1.006,-1.0066,-1.0074,-1.0081,-1.0084,-1.009,-1.0094,-1.0094,-1.0096,-1.0096,-1.0096,-1.0084,-1.0082,-1.0096,-1.0096,-1.0096,-1.0096,-1.0096,-1.0096,-1.0025,-1.0035,-1.0037,-1.0048,-1.0052,-1.006,-1.0063,-1.0067,-1.0071,-1.008,-1.0086,-1.0088,-1.0092,-1.0099,-1.0104,-1.0105,-1.0107,-1.011,-1.011,-1.0099,-1.0097,-1.0096,-1.0094,-1.011,-1.011,-1.0122,-1.0122,-1.0122]}]]